Location: *
(44.1392°N, 4.8079°E)
Time: 15:20:14
(UTC+00:00)

NOSS 5 (C) - Pass Details

Date: 27 October 2021
Orbit: 381 x 1717 km, 63.3° (Epoch: 29 November)

Event Time Altitude Azimuth Distance (km) Brightness Sun altitude
Rises 18:51:08 0° 318° (NW) 2,288 8.7 -24.5°
Reaches altitude 10° 18:53:02 10° 312° (NW) 1,475 7.7 -24.9°
Enters shadow 18:55:09 36° 287° (WNW) 707 5.8 -25.2°
